Time,TemperatureF,DewpointF,PressureIn,WindDirection,WindDirectionDegrees,WindSpeedMPH,WindSpeedGustMPH,Humidity,HourlyPrecipIn,Conditions,Clouds,dailyrainin,SoftwareType,DateUTC
2013-04-07 00:00:00,50.9,19.4,29.44,ESE,112,0.0,0.0,27,29.39,,,29.39,WeatherTracker,2013-04-07 04:00:00,
2013-04-07 00:10:00,51.1,19.4,29.41,SW,225,0.0,0.0,27,29.39,,,29.39,WeatherTracker,2013-04-07 04:10:00,
2013-04-07 00:15:00,50.7,17.6,29.41,SW,225,0.0,0.0,27,29.39,,,29.39,WeatherTracker,2013-04-07 04:15:00,
2013-04-07 00:20:00,50.5,17.6,29.41,SW,225,0.0,0.0,27,29.39,,,29.39,WeatherTracker,2013-04-07 04:20:00,
2013-04-07 00:25:00,50.5,17.6,29.41,SE,135,0.0,0.0,27,29.39,,,29.39,WeatherTracker,2013-04-07 04:25:00,
2013-04-07 00:35:00,50.2,17.6,29.41,SSE,157,0.0,0.0,27,29.39,,,29.39,WeatherTracker,2013-04-07 04:35:00,
2013-04-07 00:40:00,50.7,17.6,29.41,East,90,1.0,2.0,27,29.39,,,29.39,WeatherTracker,2013-04-07 04:40:00,
2013-04-07 00:45:00,51.3,19.4,29.41,ESE,112,0.0,0.0,27,29.39,,,29.39,WeatherTracker,2013-04-07 04:45:00,
2013-04-07 00:55:00,50.5,17.6,29.44,West,270,0.0,0.0,27,29.39,,,29.39,WeatherTracker,2013-04-07 04:55:00,
2013-04-07 01:00:00,50.7,19.4,29.44,ESE,112,0.0,0.0,28,29.39,,,29.39,WeatherTracker,2013-04-07 05:00:00,
2013-04-07 01:10:00,50.4,19.4,29.44,South,180,0.0,0.0,28,29.39,,,29.39,WeatherTracker,2013-04-07 05:10:00,
2013-04-07 01:20:00,50.0,19.4,29.44,SSW,202,0.0,0.0,28,29.39,,,29.39,WeatherTracker,2013-04-07 05:20:00,
2013-04-07 01:25:00,49.8,19.4,29.44,SSW,202,0.0,0.0,29,29.39,,,29.39,WeatherTracker,2013-04-07 05:25:00,
2013-04-07 01:30:00,50.0,19.4,29.44,SW,225,0.0,0.0,29,29.39,,,29.39,WeatherTracker,2013-04-07 05:30:00,
2013-04-07 01:40:00,49.8,19.4,29.44,SSW,202,0.0,0.0,30,29.39,,,29.39,WeatherTracker,2013-04-07 05:40:00,
2013-04-07 01:45:00,49.8,19.4,29.44,South,180,0.0,0.0,30,29.39,,,29.39,WeatherTracker,2013-04-07 05:45:00,
2013-04-07 01:55:00,49.6,21.2,29.44,SW,225,0.0,0.0,31,29.39,,,29.39,WeatherTracker,2013-04-07 05:55:00,
2013-04-07 02:00:00,49.8,21.2,29.44,SSW,202,0.0,0.0,31,29.39,,,29.39,WeatherTracker,2013-04-07 06:00:00,
2013-04-07 02:05:00,49.8,21.2,29.44,SSE,157,0.0,0.0,32,29.39,,,29.39,WeatherTracker,2013-04-07 06:05:00,
2013-04-07 02:10:00,49.8,21.2,29.44,SSW,202,0.0,0.0,32,29.39,,,29.39,WeatherTracker,2013-04-07 06:10:00,
2013-04-07 02:15:00,49.8,23.0,29.44,SSW,202,0.0,0.0,33,29.39,,,29.39,WeatherTracker,2013-04-07 06:15:00,
2013-04-07 02:25:00,49.3,23.0,29.41,ESE,112,0.0,0.0,34,29.39,,,29.39,WeatherTracker,2013-04-07 06:25:00,
2013-04-07 02:30:00,49.3,23.0,29.41,SSE,157,1.0,1.0,35,29.39,,,29.39,WeatherTracker,2013-04-07 06:30:00,
2013-04-07 02:35:00,49.3,23.0,29.44,South,180,2.0,2.0,36,29.39,,,29.39,WeatherTracker,2013-04-07 06:35:00,
2013-04-07 02:40:00,49.1,23.0,29.44,SSE,157,1.0,3.0,36,29.39,,,29.39,WeatherTracker,2013-04-07 06:40:00,
2013-04-07 02:45:00,49.3,23.0,29.44,SSE,157,1.0,1.0,36,29.39,,,29.39,WeatherTracker,2013-04-07 06:45:00,
2013-04-07 02:50:00,48.9,23.0,29.41,SSE,157,1.0,2.0,36,29.39,,,29.39,WeatherTracker,2013-04-07 06:50:00,
2013-04-07 03:00:00,48.9,23.0,29.41,SW,225,2.0,2.0,37,29.39,,,29.39,WeatherTracker,2013-04-07 07:00:00,
2013-04-07 03:05:00,48.7,23.0,29.41,SSW,202,1.0,0.0,37,29.39,,,29.39,WeatherTracker,2013-04-07 07:05:00,
2013-04-07 03:10:00,48.6,23.0,29.41,SSW,202,0.0,2.0,37,29.39,,,29.39,WeatherTracker,2013-04-07 07:10:00,
2013-04-07 03:20:00,48.6,23.0,29.41,SSW,202,2.0,2.0,37,29.39,,,29.39,WeatherTracker,2013-04-07 07:20:00,
2013-04-07 03:30:00,48.2,23.0,29.41,WSW,247,2.0,2.0,37,29.39,,,29.39,WeatherTracker,2013-04-07 07:30:00,
2013-04-07 03:35:00,48.2,23.0,29.41,South,180,1.0,1.0,38,29.39,,,29.39,WeatherTracker,2013-04-07 07:35:00,
2013-04-07 03:40:00,48.0,23.0,29.41,South,180,2.0,0.0,38,29.39,,,29.39,WeatherTracker,2013-04-07 07:40:00,
2013-04-07 03:45:00,47.7,23.0,29.41,SSW,202,1.0,0.0,38,29.39,,,29.39,WeatherTracker,2013-04-07 07:45:00,
2013-04-07 03:55:00,47.1,23.0,29.41,SW,225,0.0,0.0,38,29.39,,,29.39,WeatherTracker,2013-04-07 07:55:00,
2013-04-07 04:00:00,46.6,23.0,29.41,SW,225,0.0,0.0,38,29.39,,,29.39,WeatherTracker,2013-04-07 08:00:00,
2013-04-07 04:10:00,45.3,21.2,29.41,SSW,202,0.0,0.0,39,29.39,,,29.39,WeatherTracker,2013-04-07 08:10:00,
2013-04-07 04:15:00,45.0,21.2,29.41,SSW,202,0.0,0.0,39,29.39,,,29.39,WeatherTracker,2013-04-07 08:15:00,
2013-04-07 04:20:00,44.6,21.2,29.41,SSW,202,0.0,0.0,39,29.39,,,29.39,WeatherTracker,2013-04-07 08:20:00,
2013-04-07 04:25:00,44.4,21.2,29.41,SSW,202,0.0,0.0,40,29.39,,,29.39,WeatherTracker,2013-04-07 08:25:00,
2013-04-07 04:30:00,44.6,21.2,29.41,SSW,202,1.0,2.0,40,29.39,,,29.39,WeatherTracker,2013-04-07 08:30:00,
2013-04-07 04:40:00,43.7,21.2,29.41,SSW,202,0.0,0.0,41,29.39,,,29.39,WeatherTracker,2013-04-07 08:40:00,
2013-04-07 04:50:00,43.0,21.2,29.41,SSW,202,0.0,0.0,42,29.39,,,29.39,WeatherTracker,2013-04-07 08:50:00,
2013-04-07 04:55:00,43.0,21.2,29.41,SSW,202,0.0,0.0,42,29.39,,,29.39,WeatherTracker,2013-04-07 08:55:00,
2013-04-07 05:05:00,41.5,21.2,29.41,SSW,202,0.0,0.0,44,29.39,,,29.39,WeatherTracker,2013-04-07 09:05:00,
2013-04-07 05:15:00,40.6,21.2,29.41,SSW,202,0.0,0.0,46,29.39,,,29.39,WeatherTracker,2013-04-07 09:15:00,
2013-04-07 05:25:00,40.3,21.2,29.44,SSW,202,0.0,0.0,47,29.39,,,29.39,WeatherTracker,2013-04-07 09:25:00,
2013-04-07 05:35:00,40.1,23.0,29.44,SSW,202,0.0,0.0,48,29.39,,,29.39,WeatherTracker,2013-04-07 09:35:00,
2013-04-07 05:40:00,39.6,21.2,29.44,SSW,202,0.0,0.0,48,29.39,,,29.39,WeatherTracker,2013-04-07 09:40:00,
2013-04-07 05:45:00,39.4,21.2,29.44,SSW,202,0.0,0.0,49,29.39,,,29.39,WeatherTracker,2013-04-07 09:45:00,
2013-04-07 05:50:00,39.2,21.2,29.44,SSW,202,0.0,0.0,49,29.39,,,29.39,WeatherTracker,2013-04-07 09:50:00,
2013-04-07 06:00:00,38.7,21.2,29.44,SSW,202,0.0,0.0,50,29.39,,,29.39,WeatherTracker,2013-04-07 10:00:00,
2013-04-07 06:05:00,38.3,21.2,29.44,SSW,202,0.0,0.0,50,29.39,,,29.39,WeatherTracker,2013-04-07 10:05:00,
2013-04-07 06:15:00,38.1,21.2,29.44,SSW,202,0.0,0.0,51,29.39,,,29.39,WeatherTracker,2013-04-07 10:15:00,
2013-04-07 06:20:00,38.1,23.0,29.44,SSW,202,0.0,0.0,52,29.39,,,29.39,WeatherTracker,2013-04-07 10:20:00,
2013-04-07 06:25:00,37.9,23.0,29.44,SSW,202,0.0,0.0,52,29.39,,,29.39,WeatherTracker,2013-04-07 10:25:00,
2013-04-07 06:30:00,37.8,23.0,29.44,SSW,202,0.0,0.0,52,29.39,,,29.39,WeatherTracker,2013-04-07 10:30:00,
2013-04-07 06:35:00,37.8,23.0,29.44,SSW,202,0.0,0.0,52,29.39,,,29.39,WeatherTracker,2013-04-07 10:35:00,
2013-04-07 06:40:00,37.6,21.2,29.44,SSW,202,0.0,0.0,52,29.39,,,29.39,WeatherTracker,2013-04-07 10:40:00,
2013-04-07 06:45:00,37.4,23.0,29.44,SSW,202,0.0,0.0,53,29.39,,,29.39,WeatherTracker,2013-04-07 10:45:00,
2013-04-07 06:50:00,37.4,23.0,29.44,SSW,202,0.0,0.0,53,29.39,,,29.39,WeatherTracker,2013-04-07 10:50:00,
2013-04-07 07:00:00,37.2,23.0,29.44,SSW,202,0.0,0.0,55,29.39,,,29.39,WeatherTracker,2013-04-07 11:00:00,
2013-04-07 07:05:00,37.2,23.0,29.44,SSW,202,0.0,0.0,55,29.39,,,29.39,WeatherTracker,2013-04-07 11:05:00,
2013-04-07 07:10:00,37.2,23.0,29.44,SSW,202,0.0,0.0,55,29.39,,,29.39,WeatherTracker,2013-04-07 11:10:00,
2013-04-07 07:15:00,37.6,23.0,29.44,SSW,202,0.0,0.0,55,29.39,,,29.39,WeatherTracker,2013-04-07 11:15:00,
2013-04-07 07:20:00,37.8,23.0,29.44,SSW,202,0.0,0.0,56,29.39,,,29.39,WeatherTracker,2013-04-07 11:20:00,
2013-04-07 07:25:00,37.9,23.0,29.44,SSW,202,0.0,0.0,56,29.39,,,29.39,WeatherTracker,2013-04-07 11:25:00,
2013-04-07 07:35:00,39.4,24.8,29.44,SSW,202,0.0,0.0,56,29.39,,,29.39,WeatherTracker,2013-04-07 11:35:00,
2013-04-07 07:45:00,41.5,26.6,29.44,SSW,202,0.0,0.0,56,29.39,,,29.39,WeatherTracker,2013-04-07 11:45:00,
2013-04-07 07:50:00,43.0,28.4,29.47,SSW,202,0.0,0.0,57,29.39,,,29.39,WeatherTracker,2013-04-07 11:50:00,
2013-04-07 07:55:00,43.9,30.2,29.47,SSW,202,0.0,0.0,57,29.39,,,29.39,WeatherTracker,2013-04-07 11:55:00,
2013-04-07 08:05:00,46.4,32.0,29.44,SSW,202,0.0,0.0,55,29.39,,,29.39,WeatherTracker,2013-04-07 12:05:00,
2013-04-07 08:15:00,48.6,32.0,29.44,WSW,247,0.0,0.0,51,29.39,,,29.39,WeatherTracker,2013-04-07 12:15:00,
2013-04-07 08:25:00,50.5,30.2,29.44,SE,135,2.0,2.0,46,29.39,,,29.39,WeatherTracker,2013-04-07 12:25:00,
2013-04-07 08:30:00,50.9,30.2,29.44,SSW,202,1.0,0.0,43,29.39,,,29.39,WeatherTracker,2013-04-07 12:30:00,
2013-04-07 08:35:00,51.3,28.4,29.47,SSW,202,2.0,2.0,40,29.39,,,29.39,WeatherTracker,2013-04-07 12:35:00,
2013-04-07 08:45:00,51.8,28.4,29.47,SSW,202,2.0,3.0,39,29.39,,,29.39,WeatherTracker,2013-04-07 12:45:00,
2013-04-07 08:50:00,52.7,28.4,29.47,SSW,202,2.0,2.0,39,29.39,,,29.39,WeatherTracker,2013-04-07 12:50:00,
2013-04-07 09:00:00,53.6,28.4,29.47,NNW,337,2.0,3.0,37,29.39,,,29.39,WeatherTracker,2013-04-07 13:00:00,
2013-04-07 09:05:00,54.1,28.4,29.47,WNW,292,2.0,2.0,37,29.39,,,29.39,WeatherTracker,2013-04-07 13:05:00,
2013-04-07 09:15:00,55.0,30.2,29.47,South,180,3.0,3.0,36,29.39,,,29.39,WeatherTracker,2013-04-07 13:15:00,
2013-04-07 09:20:00,55.9,30.2,29.44,SSE,157,2.0,6.0,36,29.39,,,29.39,WeatherTracker,2013-04-07 13:20:00,
2013-04-07 09:30:00,56.5,30.2,29.44,SSW,202,2.0,3.0,35,29.39,,,29.39,WeatherTracker,2013-04-07 13:30:00,
2013-04-07 09:35:00,57.0,30.2,29.47,WSW,247,3.0,3.0,35,29.39,,,29.39,WeatherTracker,2013-04-07 13:35:00,
2013-04-07 09:40:00,56.8,30.2,29.47,SSE,157,3.0,4.0,35,29.39,,,29.39,WeatherTracker,2013-04-07 13:40:00,
2013-04-07 09:50:00,57.9,30.2,29.47,NNE,22,4.0,4.0,33,29.39,,,29.39,WeatherTracker,2013-04-07 13:50:00,
2013-04-07 09:55:00,58.8,30.2,29.47,North,0,3.0,3.0,32,29.39,,,29.39,WeatherTracker,2013-04-07 13:55:00,
2013-04-07 10:05:00,60.6,30.2,29.47,WSW,247,3.0,3.0,31,29.39,,,29.39,WeatherTracker,2013-04-07 14:05:00,
2013-04-07 10:10:00,60.6,30.2,29.47,WSW,247,4.0,4.0,30,29.39,,,29.39,WeatherTracker,2013-04-07 14:10:00,
2013-04-07 10:20:00,61.9,30.2,29.47,WSW,247,3.0,3.0,29,29.39,,,29.39,WeatherTracker,2013-04-07 14:20:00,
2013-04-07 10:25:00,63.1,30.2,29.47,SSW,202,2.0,2.0,28,29.39,,,29.39,WeatherTracker,2013-04-07 14:25:00,
2013-04-07 10:35:00,63.3,28.4,29.47,West,270,3.0,4.0,26,29.39,,,29.39,WeatherTracker,2013-04-07 14:35:00,
2013-04-07 10:45:00,63.9,28.4,29.47,SW,225,1.0,3.0,26,29.39,,,29.39,WeatherTracker,2013-04-07 14:45:00,
2013-04-07 10:55:00,64.9,28.4,29.47,ESE,112,4.0,5.0,25,29.39,,,29.39,WeatherTracker,2013-04-07 14:55:00,
2013-04-07 11:05:00,65.7,28.4,29.47,West,270,3.0,3.0,25,29.39,,,29.39,WeatherTracker,2013-04-07 15:05:00,
2013-04-07 11:15:00,65.8,28.4,29.47,WNW,292,3.0,4.0,24,29.39,,,29.39,WeatherTracker,2013-04-07 15:15:00,
2013-04-07 11:20:00,66.4,28.4,29.47,NW,315,3.0,5.0,24,29.39,,,29.39,WeatherTracker,2013-04-07 15:20:00,
2013-04-07 11:30:00,66.6,28.4,29.47,West,270,4.0,4.0,24,29.39,,,29.39,WeatherTracker,2013-04-07 15:30:00,
2013-04-07 11:40:00,66.9,28.4,29.44,West,270,3.0,6.0,24,29.39,,,29.39,WeatherTracker,2013-04-07 15:40:00,
2013-04-07 11:45:00,66.7,28.4,29.44,SSW,202,6.0,6.0,24,29.39,,,29.39,WeatherTracker,2013-04-07 15:45:00,
2013-04-07 11:55:00,67.1,30.2,29.44,NW,315,3.0,3.0,24,29.39,,,29.39,WeatherTracker,2013-04-07 15:55:00,
2013-04-07 12:00:00,67.8,30.2,29.44,NW,315,6.0,6.0,24,29.39,,,29.39,WeatherTracker,2013-04-07 16:00:00,
2013-04-07 12:05:00,68.2,28.4,29.44,WNW,292,4.0,4.0,23,29.39,,,29.39,WeatherTracker,2013-04-07 16:05:00,
2013-04-07 12:15:00,68.7,30.2,29.44,NNE,22,4.0,4.0,23,29.39,,,29.39,WeatherTracker,2013-04-07 16:15:00,
2013-04-07 12:20:00,69.4,30.2,29.44,West,270,4.0,6.0,23,29.39,,,29.39,WeatherTracker,2013-04-07 16:20:00,
2013-04-07 12:30:00,69.8,30.2,29.44,East,90,6.0,6.0,22,29.39,,,29.39,WeatherTracker,2013-04-07 16:30:00,
2013-04-07 12:40:00,70.0,30.2,29.44,West,270,6.0,11.0,22,29.39,,,29.39,WeatherTracker,2013-04-07 16:40:00,
2013-04-07 12:50:00,70.9,30.2,29.44,WNW,292,6.0,6.0,22,29.39,,,29.39,WeatherTracker,2013-04-07 16:50:00,
2013-04-07 12:55:00,70.2,30.2,29.44,WNW,292,7.0,7.0,22,29.39,,,29.39,WeatherTracker,2013-04-07 16:55:00,
2013-04-07 13:05:00,70.9,30.2,29.41,WSW,247,6.0,6.0,22,29.39,,,29.39,WeatherTracker,2013-04-07 17:05:00,
2013-04-07 13:10:00,70.5,30.2,29.41,NW,315,6.0,6.0,22,29.39,,,29.39,WeatherTracker,2013-04-07 17:10:00,
2013-04-07 13:20:00,70.9,30.2,29.41,SW,225,6.0,6.0,22,29.39,,,29.39,WeatherTracker,2013-04-07 17:20:00,
2013-04-07 13:30:00,72.0,30.2,29.41,SSE,157,4.0,4.0,21,29.39,,,29.39,WeatherTracker,2013-04-07 17:30:00,
2013-04-07 13:40:00,72.0,30.2,29.38,West,270,6.0,7.0,21,29.39,,,29.39,WeatherTracker,2013-04-07 17:40:00,
2013-04-07 13:45:00,71.8,30.2,29.38,SSW,202,6.0,6.0,21,29.39,,,29.39,WeatherTracker,2013-04-07 17:45:00,
2013-04-07 13:55:00,72.9,30.2,29.38,West,270,4.0,4.0,21,29.39,,,29.39,WeatherTracker,2013-04-07 17:55:00,
2013-04-07 14:05:00,73.4,32.0,29.38,WSW,247,5.0,5.0,21,29.39,,,29.39,WeatherTracker,2013-04-07 18:05:00,
2013-04-07 14:15:00,74.1,32.0,29.38,WSW,247,6.0,9.0,21,29.39,,,29.39,WeatherTracker,2013-04-07 18:15:00,
2013-04-07 14:25:00,72.3,30.2,29.38,SSE,157,5.0,5.0,21,29.39,,,29.39,WeatherTracker,2013-04-07 18:25:00,
2013-04-07 14:35:00,73.6,32.0,29.35,East,90,9.0,9.0,21,29.39,,,29.39,WeatherTracker,2013-04-07 18:35:00,
2013-04-07 14:40:00,73.6,32.0,29.35,WSW,247,3.0,7.0,21,29.39,,,29.39,WeatherTracker,2013-04-07 18:40:00,
2013-04-07 14:50:00,75.0,33.8,29.35,WSW,247,5.0,8.0,21,29.39,,,29.39,WeatherTracker,2013-04-07 18:50:00,
2013-04-07 15:00:00,74.8,28.4,29.35,ESE,112,3.0,3.0,18,29.39,,,29.39,WeatherTracker,2013-04-07 19:00:00,
2013-04-07 15:10:00,74.1,28.4,29.35,West,270,10.0,10.0,18,29.39,,,29.39,WeatherTracker,2013-04-07 19:10:00,
2013-04-07 15:15:00,74.7,28.4,29.35,West,270,6.0,6.0,18,29.39,,,29.39,WeatherTracker,2013-04-07 19:15:00,
2013-04-07 15:25:00,74.3,28.4,29.32,North,0,5.0,5.0,18,29.39,,,29.39,WeatherTracker,2013-04-07 19:25:00,
2013-04-07 15:30:00,74.3,28.4,29.32,WSW,247,8.0,8.0,18,29.39,,,29.39,WeatherTracker,2013-04-07 19:30:00,
2013-04-07 15:35:00,73.6,26.6,29.35,NNW,337,7.0,7.0,18,29.39,,,29.39,WeatherTracker,2013-04-07 19:35:00,
2013-04-07 15:40:00,74.1,28.4,29.35,WNW,292,4.0,4.0,18,29.39,,,29.39,WeatherTracker,2013-04-07 19:40:00,
2013-04-07 15:45:00,73.0,28.4,29.35,WSW,247,5.0,6.0,19,29.39,,,29.39,WeatherTracker,2013-04-07 19:45:00,
2013-04-07 15:55:00,73.6,26.6,29.32,West,270,5.0,6.0,18,29.39,,,29.39,WeatherTracker,2013-04-07 19:55:00,
2013-04-07 16:00:00,74.3,28.4,29.32,NE,45,2.0,3.0,18,29.39,,,29.39,WeatherTracker,2013-04-07 20:00:00,
2013-04-07 16:05:00,74.3,28.4,29.32,SE,135,5.0,5.0,18,29.39,,,29.39,WeatherTracker,2013-04-07 20:05:00,
2013-04-07 16:10:00,74.3,28.4,29.32,SSW,202,4.0,5.0,18,29.39,,,29.39,WeatherTracker,2013-04-07 20:10:00,
2013-04-07 16:20:00,73.9,28.4,29.32,WSW,247,5.0,6.0,18,29.39,,,29.39,WeatherTracker,2013-04-07 20:20:00,
2013-04-07 16:25:00,73.4,26.6,29.32,WNW,292,5.0,5.0,18,29.39,,,29.39,WeatherTracker,2013-04-07 20:25:00,
2013-04-07 16:35:00,75.6,30.2,29.29,NNW,337,1.0,2.0,18,29.39,,,29.39,WeatherTracker,2013-04-07 20:35:00,
2013-04-07 16:45:00,74.8,28.4,29.29,SSW,202,5.0,6.0,18,29.39,,,29.39,WeatherTracker,2013-04-07 20:45:00,
2013-04-07 16:50:00,74.3,28.4,29.32,WNW,292,2.0,2.0,18,29.39,,,29.39,WeatherTracker,2013-04-07 20:50:00,
2013-04-07 17:00:00,74.5,28.4,29.32,ESE,112,5.0,5.0,18,29.39,,,29.39,WeatherTracker,2013-04-07 21:00:00,
2013-04-07 17:10:00,73.9,28.4,29.32,SSW,202,6.0,11.0,18,29.39,,,29.39,WeatherTracker,2013-04-07 21:10:00,
2013-04-07 17:15:00,73.4,26.6,29.32,SSE,157,6.0,6.0,18,29.39,,,29.39,WeatherTracker,2013-04-07 21:15:00,
2013-04-07 17:20:00,73.2,28.4,29.32,SSE,157,5.0,6.0,19,29.39,,,29.39,WeatherTracker,2013-04-07 21:20:00,
2013-04-07 17:30:00,72.7,28.4,29.32,West,270,4.0,5.0,19,29.39,,,29.39,WeatherTracker,2013-04-07 21:30:00,
2013-04-07 17:35:00,72.9,28.4,29.32,WSW,247,4.0,4.0,19,29.39,,,29.39,WeatherTracker,2013-04-07 21:35:00,
2013-04-07 17:40:00,72.7,28.4,29.32,WSW,247,3.0,6.0,19,29.39,,,29.39,WeatherTracker,2013-04-07 21:40:00,
2013-04-07 17:45:00,72.3,28.4,29.32,SSE,157,3.0,7.0,19,29.39,,,29.39,WeatherTracker,2013-04-07 21:45:00,
2013-04-07 17:50:00,71.8,26.6,29.32,SSE,157,6.0,7.0,19,29.39,,,29.39,WeatherTracker,2013-04-07 21:50:00,
2013-04-07 18:00:00,70.9,26.6,29.32,SSE,157,3.0,6.0,19,29.39,,,29.39,WeatherTracker,2013-04-07 22:00:00,
2013-04-07 18:05:00,71.6,26.6,29.29,SW,225,3.0,3.0,19,29.39,,,29.39,WeatherTracker,2013-04-07 22:05:00,
2013-04-07 18:10:00,72.1,28.4,29.29,NW,315,4.0,4.0,19,29.39,,,29.39,WeatherTracker,2013-04-07 22:10:00,
2013-04-07 18:20:00,70.9,26.6,29.32,NW,315,2.0,2.0,19,29.39,,,29.39,WeatherTracker,2013-04-07 22:20:00,
2013-04-07 18:30:00,70.9,26.6,29.32,WNW,292,6.0,6.0,19,29.39,,,29.39,WeatherTracker,2013-04-07 22:30:00,
2013-04-07 18:35:00,70.7,26.6,29.32,West,270,3.0,3.0,19,29.39,,,29.39,WeatherTracker,2013-04-07 22:35:00,
2013-04-07 18:45:00,69.6,26.6,29.32,ESE,112,3.0,4.0,20,29.39,,,29.39,WeatherTracker,2013-04-07 22:45:00,
2013-04-07 18:50:00,69.4,26.6,29.32,South,180,3.0,3.0,20,29.39,,,29.39,WeatherTracker,2013-04-07 22:50:00,
2013-04-07 18:55:00,69.3,26.6,29.32,WSW,247,1.0,2.0,20,29.39,,,29.39,WeatherTracker,2013-04-07 22:55:00,
2013-04-07 19:05:00,68.4,26.6,29.32,South,180,2.0,3.0,20,29.39,,,29.39,WeatherTracker,2013-04-07 23:05:00,
2013-04-07 19:10:00,68.0,24.8,29.32,SSW,202,0.0,0.0,20,29.39,,,29.39,WeatherTracker,2013-04-07 23:10:00,
2013-04-07 19:20:00,67.8,28.4,29.29,SE,135,3.0,4.0,22,29.39,,,29.39,WeatherTracker,2013-04-07 23:20:00,
2013-04-07 19:30:00,67.1,26.6,29.29,West,270,2.0,2.0,22,29.39,,,29.39,WeatherTracker,2013-04-07 23:30:00,
2013-04-07 19:35:00,66.4,26.6,29.29,WNW,292,1.0,2.0,22,29.39,,,29.39,WeatherTracker,2013-04-07 23:35:00,
2013-04-07 19:40:00,65.8,26.6,29.29,SE,135,1.0,0.0,23,29.39,,,29.39,WeatherTracker,2013-04-07 23:40:00,
2013-04-07 19:50:00,64.4,26.6,29.32,West,270,0.0,0.0,23,29.39,,,29.39,WeatherTracker,2013-04-07 23:50:00,
2013-04-07 19:55:00,63.9,26.6,29.32,West,270,0.0,0.0,24,29.39,,,29.39,WeatherTracker,2013-04-07 23:55:00,
2013-04-07 20:00:00,63.3,26.6,29.32,West,270,0.0,0.0,24,29.39,,,29.39,WeatherTracker,2013-04-08 00:00:00,
2013-04-07 20:05:00,63.1,26.6,29.29,WSW,247,0.0,0.0,24,29.39,,,29.39,WeatherTracker,2013-04-08 00:05:00,